W5SDC Weather Reports


Display with metric or nautical units.
time (UTC)temp
F
wind
direction
speed
MPH
gust
MPH
rain 1hr
in
rain 24hr
in
rain mn
in
humidity
%
barometer
mb
20260902194533 101 198 2.0 4.0 0.00 0.00 0.00 42 1014.2
20260902194021 99 218 3.0 5.0 0.00 0.00 0.00 43 1014.3
20260902193527 99 274 1.0 2.0 0.00 0.00 0.00 43 1014.4
20260902193055 100 304 3.0 4.0 0.00 0.00 0.00 42 1014.4
20260902192522 99 236 3.0 5.0 0.00 0.00 0.00 43 1014.7
20260902192028 98 345 2.0 4.0 0.00 0.00 0.00 43 1014.7
20260902191516 100 262 4.0 6.0 0.00 0.00 0.00 42 1014.7
20260902191023 101 253 3.0 5.0 0.00 0.00 0.00 41 1014.7
20260902190530 102 326 4.0 5.0 0.00 0.00 0.00 41 1014.8
20260902190017 104 291 3.0 6.0 0.00 0.00 0.00 40 1014.9
20260902185524 102 277 3.0 6.0 0.00 0.00 0.00 41 1014.9
20260902185030 100 335 5.0 8.0 0.00 0.00 0.00 43 1015.2
20260902184519 99 321 3.0 6.0 0.00 0.00 0.00 44 1015.3
20260902184025 98 325 4.0 7.0 0.00 0.00 0.00 45 1015.3
20260902183531 99 257 4.0 6.0 0.00 0.00 0.00 44 1015.3
20260902183040 99 262 4.0 6.0 0.00 0.00 0.00 44 1015.3
20260902182525 100 288 3.0 4.0 0.00 0.00 0.00 44 1015.4
20260902182031 99 178 3.0 7.0 0.00 0.00 0.00 44 1015.5
20260902181540 100 178 5.0 7.0 0.00 0.00 0.00 44 1015.6
20260902181106 102 227 5.0 8.0 0.00 0.00 0.00 43 1015.8
20260902180613 100 249 3.0 4.0 0.00 0.00 0.00 44 1015.8
20260902180040 98 167 4.0 7.0 0.00 0.00 0.00 45 1016.0
20260902175527 101 245 4.0 7.0 0.00 0.00 0.00 44 1016.0
20260902175033 100 278 2.0 4.0 0.00 0.00 0.00 44 1016.1
20260902174541 99 73 3.0 5.0 0.00 0.00 0.00 46 1016.2
20260902174048 99 165 5.0 7.0 0.00 0.00 0.00 46 1016.2
20260902173516 99 180 4.0 7.0 0.00 0.00 0.00 46 1016.4
20260902173022 99 160 5.0 7.0 0.00 0.00 0.00 46 1016.4
20260902172529 99 231 3.0 6.0 0.00 0.00 0.00 45 1016.5
20260902172057 100 316 4.0 7.0 0.00 0.00 0.00 45 1016.6
20260902171524 101 269 4.0 6.0 0.00 0.00 0.00 44 1016.6
20260902171050 98 208 4.0 5.0 0.00 0.00 0.00 47 1016.7
20260902170518 98 147 2.0 4.0 0.00 0.00 0.00 47 1016.7
20260902170025 98 165 3.0 5.0 0.00 0.00 0.00 47 1016.9
20260902165531 99 339 2.0 4.0 0.00 0.00 0.00 46 1016.9
20260902165019 97 240 3.0 5.0 0.00 0.00 0.00 49 1017.0
20260902164526 96 179 4.0 6.0 0.00 0.00 0.00 49 1017.0
20260902164032 96 181 4.0 7.0 0.00 0.00 0.00 49 1017.0
20260902163540 97 181 5.0 8.0 0.00 0.00 0.00 48 1017.1
20260902163027 98 234 4.0 6.0 0.00 0.00 0.00 48 1017.1
20260902162533 98 256 5.0 7.0 0.00 0.00 0.00 47 1017.1
20260902162021 97 257 4.0 6.0 0.00 0.00 0.00 48 1017.1
20260902161528 96 263 4.0 6.0 0.00 0.00 0.00 49 1017.1
20260902161016 96 250 4.0 10.0 0.00 0.00 0.00 49 1017.1
20260902160523 96 266 4.0 7.0 0.00 0.00 0.00 49 1017.1
20260902160029 95 203 2.0 4.0 0.00 0.00 0.00 51 1017.2
20260902155517 95 258 3.0 5.0 0.00 0.00 0.00 51 1017.2
20260902155024 93 253 4.0 6.0 0.00 0.00 0.00 52 1017.2
20260902154530 94 276 5.0 7.0 0.00 0.00 0.00 51 1017.2
20260902154018 94 261 4.0 6.0 0.00 0.00 0.00 52 1017.2
20260902153525 94 276 5.0 7.0 0.00 0.00 0.00 52 1017.2
20260902153052 94 247 4.0 7.0 0.00 0.00 0.00 53 1017.2
20260902152520 93 307 4.0 9.0 0.00 0.00 0.00 54 1017.2
20260902152026 92 283 5.0 7.0 0.00 0.00 0.00 55 1017.2
20260902151533 92 229 6.0 8.0 0.00 0.00 0.00 54 1017.1
20260902151021 93 247 4.0 7.0 0.00 0.00 0.00 55 1017.0
20260902150528 92 219 4.0 6.0 0.00 0.00 0.00 55 1017.0
20260902150016 91 233 6.0 9.0 0.00 0.00 0.00 56 1017.0
20260902145522 91 275 5.0 6.0 0.00 0.00 0.00 57 1017.0
20260902145029 90 242 5.0 8.0 0.00 0.00 0.00 57 1017.0
20260902144516 90 219 6.0 9.0 0.00 0.00 0.00 58 1017.0
20260902144022 90 231 5.0 9.0 0.00 0.00 0.00 59 1017.0
20260902143529 89 214 4.0 6.0 0.00 0.00 0.00 60 1017.2
20260902143030 88 242 6.0 9.0 0.00 0.00 0.00 62 1017.2
20260902142539 88 242 5.0 8.0 0.00 0.00 0.00 62 1017.1
20260902142025 88 228 4.0 7.0 0.00 0.00 0.00 64 1017.1
20260902141532 87 234 3.0 5.0 0.00 0.00 0.00 65 1017.0
20260902141020 86 205 4.0 6.0 0.00 0.00 0.00 66 1017.0
20260902140525 85 233 4.0 6.0 0.00 0.00 0.00 68 1017.0
20260902140031 86 222 2.0 6.0 0.00 0.00 0.00 67 1017.1
20260902135600 85 233 3.0 6.0 0.00 0.00 0.00 68 1017.1
20260902135026 85 226 3.0 8.0 0.00 0.00 0.00 68 1017.0
20260902134533 84 204 3.0 6.0 0.00 0.00 0.00 70 1017.0
20260902134021 83 223 3.0 5.0 0.00 0.00 0.00 72 1017.0
20260902133527 82 210 3.0 5.0 0.00 0.00 0.00 73 1017.0
20260902133016 82 217 4.0 6.0 0.00 0.00 0.00 73 1017.0
20260902132522 81 222 2.0 5.0 0.00 0.00 0.00 75 1016.8
20260902132028 80 221 3.0 5.0 0.00 0.00 0.00 75 1016.8
20260902131517 79 202 3.0 5.0 0.00 0.00 0.00 77 1016.7
20260902131023 78 224 4.0 6.0 0.00 0.00 0.00 78 1016.6
20260902130530 78 244 4.0 6.0 0.00 0.00 0.00 79 1016.5
20260902130039 77 216 4.0 5.0 0.00 0.00 0.00 80 1016.5
20260902125524 76 235 3.0 5.0 0.00 0.00 0.00 81 1016.5
20260902125051 76 223 4.0 5.0 0.00 0.00 0.00 82 1016.5
20260902124519 75 217 3.0 5.0 0.00 0.00 0.00 83 1016.5
20260902124026 75 208 3.0 4.0 0.00 0.00 0.00 83 1016.5
20260902123532 75 210 3.0 5.0 0.00 0.00 0.00 83 1016.4
20260902123020 75 217 3.0 4.0 0.00 0.00 0.00 83 1016.4
20260902122527 75 210 3.0 4.0 0.00 0.00 0.00 83 1016.3
20260902122015 75 200 3.0 4.0 0.00 0.00 0.00 83 1016.3
20260902121522 75 219 1.0 3.0 0.00 0.00 0.00 83 1016.2
20260902121028 75 206 2.0 3.0 0.00 0.00 0.00 83 1016.2
20260902120537 75 216 3.0 4.0 0.00 0.00 0.00 83 1016.2
20260902120023 75 219 3.0 3.0 0.00 0.00 0.00 83 1016.2
20260902115530 74 221 3.0 4.0 0.00 0.00 0.00 83 1016.2
20260902115018 74 204 2.0 4.0 0.00 0.00 0.00 83 1016.1
20260902114605 74 203 0.0 2.0 0.00 0.00 0.00 83 1016.0
20260902114030 74 0.0 2.0 0.00 0.00 0.00 83 1016.0
20260902113519 74 217 0.0 2.0 0.00 0.00 0.00 83 1016.0
20260902113025 74 203 0.0 2.0 0.00 0.00 0.00 83 1016.0
20260902112552 75 213 1.0 3.0 0.00 0.00 0.00 83 1016.1
20260902112020 75 203 1.0 2.0 0.00 0.00 0.00 83 1016.2
20260902111527 75 204 1.0 2.0 0.00 0.00 0.00 83 1016.1
20260902111033 75 211 1.0 2.0 0.00 0.00 0.00 83 1016.0
20260902110522 74 0.0 0.0 0.00 0.00 0.00 83 1016.0
20260902110108 74 248 1.0 2.0 0.00 0.00 0.00 83 1016.0
20260902105517 75 0.0 0.0 0.00 0.00 0.00 82 1016.0
20260902105023 75 203 0.0 2.0 0.00 0.00 0.00 82 1016.0
20260902104550 75 206 1.0 2.0 0.00 0.00 0.00 81 1016.0
20260902104018 75 0.0 0.0 0.00 0.00 0.00 81 1016.0
20260902103525 75 0.0 0.0 0.00 0.00 0.00 81 1016.0
20260902103031 75 0.0 0.0 0.00 0.00 0.00 81 1016.0
20260902102519 75 0.0 0.0 0.00 0.00 0.00 81 1016.0
20260902102046 75 0.0 0.0 0.00 0.00 0.00 81 1016.0
20260902101532 75 0.0 0.0 0.00 0.00 0.00 81 1016.1
20260902101020 76 0.0 0.0 0.00 0.00 0.00 81 1016.2
20260902100527 76 0.0 0.0 0.00 0.00 0.00 81 1016.2
20260902100015 76 0.0 0.0 0.00 0.00 0.00 81 1016.2
20260902095642 76 0.0 0.0 0.00 0.00 0.00 81 1016.2
20260902095028 76 0.0 0.0 0.00 0.00 0.00 81 1016.1
20260902094516 76 0.0 0.0 0.00 0.00 0.00 81 1016.0
20260902094023 76 180 0.0 1.0 0.00 0.00 0.00 81 1016.1
20260902093550 77 0.0 0.0 0.00 0.00 0.00 80 1016.2
20260902093018 77 0.0 0.0 0.00 0.00 0.00 80 1016.2
20260902092525 77 180 0.0 2.0 0.00 0.00 0.00 80 1016.2
20260902092051 77 152 1.0 2.0 0.00 0.00 0.00 80 1016.2
20260902091519 77 140 1.0 2.0 0.00 0.00 0.00 80 1016.2
20260902091026 78 160 2.0 3.0 0.00 0.00 0.00 80 1016.2
20260902090532 78 152 2.0 5.0 0.00 0.00 0.00 80 1016.2
20260902090020 78 158 4.0 4.0 0.00 0.00 0.00 80 1016.2
20260902085527 78 167 3.0 4.0 0.00 0.00 0.00 80 1016.2
20260902085015 78 188 2.0 4.0 0.00 0.00 0.00 80 1016.2
20260902084522 78 177 2.0 3.0 0.00 0.00 0.00 80 1016.3
20260902084028 78 174 2.0 3.0 0.00 0.00 0.00 79 1016.3
20260902083517 78 176 2.0 3.0 0.00 0.00 0.00 79 1016.2
20260902083023 78 145 3.0 4.0 0.00 0.00 0.00 79 1016.2
20260902082550 78 158 3.0 3.0 0.00 0.00 0.00 79 1016.3
20260902082018 78 161 2.0 3.0 0.00 0.00 0.00 79 1016.3
20260902081524 78 169 2.0 3.0 0.00 0.00 0.00 79 1016.3
20260902081031 78 160 2.0 2.0 0.00 0.00 0.00 79 1016.3
20260902080539 79 160 2.0 3.0 0.00 0.00 0.00 79 1016.3
20260902080026 79 168 2.0 3.0 0.00 0.00 0.00 79 1016.3
20260902075532 79 185 2.0 3.0 0.00 0.00 0.00 79 1016.3
20260902075021 79 179 2.0 3.0 0.00 0.00 0.00 79 1016.3
20260902074547 79 201 2.0 3.0 0.00 0.00 0.00 79 1016.4
20260902074015 79 195 2.0 4.0 0.00 0.00 0.00 78 1016.4
20260902073521 79 194 2.0 3.0 0.00 0.00 0.00 78 1016.5
20260902073029 79 140 1.0 2.0 0.00 0.00 0.00 78 1016.5
20260902072557 79 130 1.0 3.0 0.00 0.00 0.00 78 1016.5
20260902072023 79 0.0 0.0 0.00 0.00 0.00 78 1016.6
20260902071530 79 0.0 1.0 0.00 0.00 0.00 77 1016.6
20260902071018 80 194 2.0 3.0 0.00 0.00 0.00 77 1016.6
20260902070524 80 141 2.0 3.0 0.00 0.00 0.00 77 1016.6
20260902070031 80 156 1.0 3.0 0.00 0.00 0.00 77 1016.6
20260902065519 80 158 1.0 3.0 0.00 0.00 0.00 77 1016.6
20260902065025 80 144 1.0 2.0 0.00 0.00 0.00 76 1016.5
20260902064532 80 154 0.0 2.0 0.00 0.00 0.00 76 1016.5
20260902064040 80 204 1.0 2.0 0.00 0.00 0.00 75 1016.5
20260902063527 81 172 2.0 3.0 0.00 0.00 0.00 75 1016.6
20260902063035 81 173 2.0 4.0 0.00 0.00 0.00 75 1016.6
20260902062522 81 214 2.0 4.0 0.00 0.00 0.00 75 1016.6
20260902062048 81 201 2.0 4.0 0.00 0.00 0.00 74 1016.6
20260902061517 81 175 3.0 5.0 0.00 0.00 0.00 74 1016.6
20260902061023 81 167 3.0 4.0 0.00 0.00 0.00 74 1016.6
20260902060530 82 189 4.0 5.0 0.00 0.00 0.00 73 1016.5
20260902060058 82 178 4.0 5.0 0.00 0.00 0.00 73 1016.5
20260902055525 82 190 3.0 5.0 0.00 0.00 0.00 73 1016.5
20260902055031 82 213 3.0 6.0 0.00 0.00 0.00 73 1016.5
20260902054519 82 190 4.0 6.0 0.00 0.00 0.00 72 1016.5
20260902054046 82 197 3.0 5.0 0.00 0.00 0.00 72 1016.5
20260902053552 82 166 5.0 6.0 0.00 0.00 0.00 72 1016.5
20260902053021 83 175 4.0 5.0 0.00 0.00 0.00 71 1016.5
20260902052547 83 163 4.0 7.0 0.00 0.00 0.00 71 1016.4
20260902052036 83 176 4.0 5.0 0.00 0.00 0.00 70 1016.4
20260902051542 83 181 4.0 5.0 0.00 0.00 0.00 70 1016.4
20260902051028 83 168 4.0 6.0 0.00 0.00 0.00 69 1016.4
20260902050517 84 149 4.0 7.0 0.00 0.00 0.00 69 1016.4
20260902050023 84 156 6.0 8.0 0.00 0.00 0.00 69 1016.4
20260902045610 84 158 4.0 5.0 0.00 0.00 0.00 68 1016.4
20260902045038 84 181 6.0 8.0 0.00 0.00 0.00 68 1016.4
20260902044524 84 167 5.0 10.0 0.00 0.00 0.00 67 1016.5
20260902044031 84 141 6.0 11.0 0.00 0.00 0.00 67 1016.4
20260902043519 84 168 4.0 6.0 0.00 0.00 0.00 66 1016.4
20260902043026 84 173 2.0 5.0 0.00 0.00 0.00 65 1016.4
20260902042532 84 157 2.0 4.0 0.00 0.00 0.00 65 1016.3
20260902042020 85 162 3.0 5.0 0.00 0.00 0.00 64 1016.3
20260902041527 85 139 4.0 5.0 0.00 0.00 0.00 64 1016.3
20260902041016 85 143 4.0 5.0 0.00 0.00 0.00 64 1016.3
20260902040522 85 134 4.0 7.0 0.00 0.00 0.00 64 1016.3
20260902040028 85 141 4.0 6.0 0.00 0.00 0.00 64 1016.3
20260902035517 85 119 3.0 4.0 0.00 0.00 0.00 64 1016.3
20260902035044 85 142 3.0 4.0 0.00 0.00 0.00 64 1016.1
20260902034530 85 137 3.0 4.0 0.00 0.00 0.00 63 1016.0
20260902034038 85 151 3.0 5.0 0.00 0.00 0.00 63 1016.0
20260902033525 85 127 2.0 4.0 0.00 0.00 0.00 63 1016.0
20260902033051 85 101 2.0 3.0 0.00 0.00 0.00 63 1016.0
20260902032519 86 143 3.0 4.0 0.00 0.00 0.00 63 1015.8
20260902032026 86 143 3.0 4.0 0.00 0.00 0.00 62 1015.8
20260902031532 86 163 3.0 4.0 0.00 0.00 0.00 62 1015.7
20260902031020 86 167 3.0 6.0 0.00 0.00 0.00 62 1015.5
20260902030527 86 180 3.0 6.0 0.00 0.00 0.00 61 1015.5
20260902030038 86 168 3.0 5.0 0.00 0.00 0.00 61 1015.3
20260902025521 87 175 4.0 6.0 0.00 0.00 0.00 60 1015.3
20260902025027 87 158 3.0 5.0 0.00 0.00 0.00 60 1015.3
20260902024516 87 148 4.0 5.0 0.00 0.00 0.00 59 1015.3
20260902024022 87 163 5.0 8.0 0.00 0.00 0.00 59 1015.2
20260902023529 87 140 4.0 7.0 0.00 0.00 0.00 58 1015.0
20260902023017 87 134 3.0 5.0 0.00 0.00 0.00 57 1015.0
20260902022524 88 131 4.0 6.0 0.00 0.00 0.00 57 1014.8
20260902022030 88 138 4.0 8.0 0.00 0.00 0.00 57 1014.7
20260902021538 88 147 4.0 6.0 0.00 0.00 0.00 56 1014.7
20260902021025 88 140 3.0 4.0 0.00 0.00 0.00 56 1014.6
20260902020531 88 157 4.0 6.0 0.00 0.00 0.00 55 1014.6
20260902020019 88 151 4.0 6.0 0.00 0.00 0.00 54 1014.4
20260902015647 88 114 4.0 6.0 0.00 0.00 0.00 54 1014.4
20260902015053 89 122 3.0 5.0 0.00 0.00 0.00 54 1014.3
20260902014521 89 146 2.0 3.0 0.00 0.00 0.00 53 1014.3
20260902014027 89 135 2.0 4.0 0.00 0.00 0.00 53 1014.3
20260902013516 89 118 3.0 4.0 0.00 0.00 0.00 53 1014.2
20260902013022 89 109 3.0 4.0 0.00 0.00 0.00 53 1014.2
20260902012529 90 150 2.0 4.0 0.00 0.00 0.00 53 1014.1
20260902012017 90 136 3.0 5.0 0.00 0.00 0.00 52 1014.1
20260902011523 90 107 3.0 5.0 0.00 0.00 0.00 52 1014.0
20260902011030 90 133 3.0 4.0 0.00 0.00 0.00 52 1014.0
20260902010518 91 137 2.0 3.0 0.00 0.00 0.00 51 1014.0
20260902010024 91 106 3.0 5.0 0.00 0.00 0.00 51 1013.9
20260902005531 92 92 4.0 6.0 0.00 0.00 0.00 50 1013.9
20260902005039 92 104 6.0 8.0 0.00 0.00 0.00 49 1014.1
20260902004546 92 129 4.0 7.0 0.00 0.00 0.00 48 1014.2
20260902004032 93 69 4.0 6.0 0.00 0.00 0.00 47 1014.2
20260902003520 94 100 3.0 4.0 0.00 0.00 0.00 47 1014.2
20260902003026 94 133 2.0 4.0 0.00 0.00 0.00 47 1014.2
20260902002533 94 107 3.0 5.0 0.00 0.00 0.00 47 1014.3
20260902002021 94 39 4.0 7.0 0.00 0.00 0.00 47 1014.3
20260902001528 95 74 3.0 4.0 0.00 0.00 0.00 47 1014.3
20260902001016 94 70 4.0 6.0 0.00 0.00 0.00 47 1014.2
20260902000522 95 47 5.0 9.0 0.00 0.00 0.00 47 1014.2
20260902000029 95 61 5.0 7.0 0.00 0.00 0.00 47 1014.1
20260901235537 95 34 5.0 7.0 0.00 0.00 0.00 46 1014.1
20260901235044 96 79 6.0 9.0 0.00 0.00 0.00 46 1014.0
20260901234611 96 103 5.0 7.0 0.00 0.00 0.00 46 1013.9
20260901234018 97 90 7.0 9.0 0.00 0.00 0.00 46 1013.9
20260901233524 97 130 4.0 8.0 0.00 0.00 0.00 46 1014.0
20260901233031 97 131 5.0 6.0 0.00 0.00 0.00 46 1014.0
20260901232519 97 118 5.0 8.0 0.00 0.00 0.00 46 1014.2
20260901232026 96 70 4.0 5.0 0.00 0.00 0.00 47 1014.2
20260901231552 95 73 5.0 8.0 0.00 0.00 0.00 47 1014.2
20260901231020 95 48 6.0 9.0 0.00 0.00 0.00 47 1014.1
20260901230527 95 32 5.0 7.0 0.00 0.00 0.00 46 1014.1
20260901230015 96 57 5.0 7.0 0.00 0.00 0.00 46 1014.0
20260901225542 97 61 5.0 8.0 0.00 0.00 0.00 45 1014.0
20260901225028 99 47 5.0 7.0 0.00 0.00 0.00 44 1014.0
20260901224517 99 48 6.0 8.0 0.00 0.00 0.00 43 1014.0
20260901224023 100 81 5.0 9.0 0.00 0.00 0.00 43 1014.0
20260901223550 100 140 4.0 7.0 0.00 0.00 0.00 43 1014.1
20260901223018 99 161 5.0 7.0 0.00 0.00 0.00 43 1014.1
20260901222524 99 159 4.0 6.0 0.00 0.00 0.00 42 1014.2
20260901222031 99 158 4.0 6.0 0.00 0.00 0.00 43 1014.2
20260901221519 98 125 4.0 6.0 0.00 0.00 0.00 44 1014.2
20260901221046 99 74 6.0 8.0 0.00 0.00 0.00 43 1014.2
20260901220552 99 45 5.0 7.0 0.00 0.00 0.00 43 1014.2
20260901220020 99 94 4.0 7.0 0.00 0.00 0.00 43 1014.1
20260901215527 99 47 5.0 8.0 0.00 0.00 0.00 43 1014.1
20260901215053 100 28 6.0 8.0 0.00 0.00 0.00 42 1014.2
20260901214521 100 91 4.0 6.0 0.00 0.00 0.00 42 1014.3
20260901214027 99 128 3.0 7.0 0.00 0.00 0.00 42 1014.3
20260901213536 100 117 5.0 7.0 0.00 0.00 0.00 42 1014.3
20260901213022 99 184 3.0 4.0 0.00 0.00 0.00 43 1014.3
20260901212529 99 60 4.0 6.0 0.00 0.00 0.00 43 1014.5
20260901212017 100 30 4.0 8.0 0.00 0.00 0.00 43 1014.5
20260901211523 99 78 6.0 8.0 0.00 0.00 0.00 43 1014.6
20260901211030 99 145 6.0 9.0 0.00 0.00 0.00 43 1014.7
20260901210518 99 161 4.0 7.0 0.00 0.00 0.00 44 1014.8
20260901210045 98 179 3.0 5.0 0.00 0.00 0.00 45 1014.9
20260901205531 96 125 3.0 5.0 0.00 0.00 0.00 46 1014.9
20260901205019 96 115 5.0 8.0 0.00 0.00 0.00 46 1015.0
20260901204526 97 163 5.0 8.0 0.00 0.00 0.00 45 1015.0
20260901204032 99 113 5.0 8.0 0.00 0.00 0.00 44 1015.1
20260901203601 98 11 6.0 9.0 0.00 0.00 0.00 45 1015.3
20260901203027 98 85 5.0 7.0 0.00 0.00 0.00 46 1015.3
20260901202515 96 22 4.0 6.0 0.00 0.00 0.00 47 1015.4
20260901202022 97 43 5.0 7.0 0.00 0.00 0.00 46 1015.5
20260901201528 98 40 4.0 7.0 0.00 0.00 0.00 45 1015.5
20260901201016 98 340 6.0 9.0 0.00 0.00 0.00 44 1015.5
20260901200523 97 154 5.0 7.0 0.00 0.00 0.00 46 1015.5
20260901200029 98 148 4.0 7.0 0.00 0.00 0.00 45 1015.8
20260901195517 98 248 4.0 6.0 0.00 0.00 0.00 46 1015.8
20260901195024 98 49 5.0 6.0 0.00 0.00 0.00 45 1015.8